Location: Strawberry
(45.6646°N, 111.9596°W)
Time: 15:31:41
(UTC+00:00)

Tiangong - Pass Details

Date: 26 August 2022
Orbit: 377 x 382 km, 41.5° (Epoch: 27 September)

Event Time Altitude Azimuth Distance (km) Brightness Sun altitude
Rises 02:55:59 0° 267° (W) 2,244 3.1 -7.1°
Reaches altitude 10° 02:58:17 10° 253° (WSW) 1,389 1.5 -7.4°
Maximum altitude 03:00:53 24° 197° (SSW) 831 -0.5 -7.8°
Drops below altitude 10° 03:03:28 10° 141° (SE) 1,382 0.1 -8.3°
Enters shadow 03:03:35 - 140° (SE) 1,419 0.2 -8.3°
